Gold Country Challenge - Loft Fly - Birds Brought Back Tahoe Fog

Station: Loft Fly - T Race

Distance: 0.3 Miles    

Release: 11-Oct-2018 10:05

Weather Release:    Arrival: Mostly Sunny

Wind at Release:     Wind at Arrival:

Temp at Release: °    Temp at Arrival: °

Lofts: 82

Birds: 228

Clocked: 229

Fog moved into Mt. Rose and west shore of Tahoe. Bringing birds back home
Drops Pos Breeder Pigeon Name Color Sex Ent Arrival Speed To Win Eligible Champ
1 H & H Flying Circus - CA 0807-AU18-ML BC H 1 10:58:36.70 9.849 00:00:00 Yes
2 De La O-Siino - CA 8092-AU18-COOK BCWF C 1 10:58:57.60 9.785 00:00:21 Yes
3 John Partridge - CA 1062-AU18-PASO BB H 1 10:58:59.50 9.779 00:00:23 Yes
4 John Hedderson - CA 0805-AU18-HEDD 20744x4004a BC H 1 10:59:01.70 9.773 00:00:25 Yes
5 Dan And Greg Coury - AZ 0210-AU18-DUTC Brother's Pride 322x578 DC H 1 10:59:03.00 9.769 00:00:26 Yes
5 Perfection 2 - KS 1709-AU18-TCH SLT H 1 10:59:03.00 9.769 00:00:26 Yes
7 D B Loft - CA 8578-AU18-JEDD desert snow BB H 1 10:59:03.50 9.767 00:00:27 Yes
7 O'brien & Ellis - CA 8413-AU18-SWI BBPD H 1 10:59:03.50 9.767 00:00:27 Yes
9 Mc Cormick Loft - CA 0228-AU18-HANG BB H 1 10:59:05.70 9.761 00:00:29 Yes
10 Dan And Greg Coury - AZ 0818-AU18-PEGA EVC122xEVC133 BB H 2 10:59:06.90 9.757 00:00:30 Yes
11 Triangle F Loft - UT 0253-AU18-UVI 106 X 6366 SLT H 1 10:59:09.10 9.750 00:00:33 Yes
12 G & J Lofts - CA 3005-AU18-AA Dicken’s Delight BB H 1 10:59:10.10 9.747 00:00:34 Yes
13 G & L Loft - OR 3120-AU18-WPC BCSP H 1 10:59:12.70 9.740 00:00:36 Yes
14 Yang Family Racing - CA 0009-AU18-YS 900 X 1482701 BB H 1 10:59:13.80 9.736 00:00:37 Yes
15 Genesis Syndicate Loft - AZ 0510-AU18-GEN BB H 1 10:59:15.10 9.732 00:00:39 Yes
16 Scrub Family Loft - MN 0054-AU18-UNIT Pachia BB H 1 10:59:16.00 9.730 00:00:39 Yes
17 Racing Pigeon Mall - WA 0817-AU18-RPM BB H 1 10:59:17.30 9.726 00:00:41 Yes
18 A P C Loft - TX 18186-AU18-APC BB H 1 10:59:23.00 9.709 00:00:46 Yes
19 Silicon Valley Syndicates - CA 1815-AU18-WSJ BB H 1 10:59:25.50 9.701 00:00:49 Yes
20 Lopez/ Saenz - CA 0317-AU18-TCH BB H 1 10:59:26.00 9.700 00:00:49 Yes
21 Blue - Face - CA 1901-AU18-FVC BC H 1 10:59:26.50 9.698 00:00:50 Yes
22 Fleet Washington - DC 1864-AU18-FLET BB H 1 10:59:27.70 9.695 00:00:51 Yes
23 Al Uriarte - CA 0002-AU18-SEL BBWF H 1 10:59:29.60 9.689 00:00:53 Yes
24 Oscar Yanez - CA 4661-AU18-FOYS Osty-l BB H 1 10:59:30.20 9.687 00:00:54 Yes
25 Fleet Washington - DC 1832-AU18-FLET BBWF H 2 10:59:31.60 9.683 00:00:55 Yes
26 Fleet Washington - DC 1833-AU18-FLET BC H 3 10:59:33.50 9.678 00:00:57 Yes
27 Triangle F Loft - UT 0262-AU18-UVI 105 X 7166 SLT H 2 10:59:33.90 9.677 00:00:57 Yes
28 All In - CA 0159-AU18-BON SC H 1 10:59:34.40 9.675 00:00:58 Yes
28 P N W Challenge - ID 0130-AU18-PNWC Pair#18 BBWF H 1 10:59:34.50 9.675 00:00:58 Yes
30 Yang Family Racing - CA 0005-AU18-YS 182 X 12303 BC H 2 10:59:35.20 9.673 00:00:59 Yes
31 P N W Challenge - ID 0100-AU18-PNWC Pair#14 BC H 2 10:59:35.60 9.672 00:00:59 Yes
32 Al Shulman - CA 2761-AU18-WSJ DCWF H 1 10:59:36.20 9.670 00:01:00 Yes
33 Mc Cormick Loft - CA 0236-AU18-HANG BB H 2 10:59:37.80 9.665 00:01:01 Yes
34 Skylinerpl.Com - UT 1040-AU18-UVI "Poortvliet Hen" BB H 1 10:59:38.20 9.664 00:01:02 Yes
35 H & H Flying Circus - CA 0806-AU18-ML BB H 2 10:59:39.70 9.659 00:01:03 Yes
36 Luisi/Tapia - NM 18003-AU18-TAP BBSP H 1 10:59:40.20 9.658 00:01:04 Yes
37 Jactions Loft - CA 0802-AU18-AA BB H 1 10:59:40.50 9.657 00:01:04 Yes
38 Triangle F Loft - UT 0257-AU18-UVI 594 X 700 BCWF H 3 10:59:41.60 9.654 00:01:05 Yes
39 California Breeders Syndicate - CA 1499-AU18-AA Gold Digger BBWF H 1 10:59:42.50 9.651 00:01:06 Yes
40 Kay Eastwood - CA 0158-AU18-HANG MLY H 1 10:59:42.80 9.650 00:01:06 Yes
41 House Of Paine - CA 1897-AU18-GSF BB H 1 10:59:44.10 9.646 00:01:08 Yes
42 Bolgar Loft - CA 3344-AU18-FSC Galebka BC H 1 10:59:44.70 9.645 00:01:08 Yes
43 Flying D Loft - TX 0681-AU18-FLYD BB H 1 10:59:45.80 9.641 00:01:09 Yes
44 Cloux Loft - CO 8301-AU18-FH BC H 1 10:59:46.40 9.640 00:01:10 Yes
45 Jeff Earthman - NV 0849-AU18-EART PIED H 1 10:59:46.90 9.638 00:01:10 Yes
46 House Of Paine - CA 1826-AU18-GSF MLY H 2 10:59:47.30 9.637 00:01:11 Yes
46 Ron Brooks - AR 1811-AU18-REB BB H 1 10:59:47.30 9.637 00:01:11 Yes
48 Fantastic 4 Syndicate - CA 4722-AU18-RR BC H 1 10:59:48.50 9.634 00:01:12 Yes
49 Blue - Face - CA 1902-AU18-FVC BC H 2 10:59:49.20 9.632 00:01:12 Yes
50 Flyhome Loft - CA 1804-AU18-FLYH BC H 1 10:59:51.10 9.626 00:01:15 Yes
51 Skylinerpl.Com - UT 1036-AU18-UVI "Do It Again" BB H 2 10:59:52.80 9.621 00:01:16 Yes
52 P N W Challenge - ID 0709-AU18-DA Pair#J BCWF H 3 10:59:53.30 9.620 00:01:17 Yes
53 Fantastic 4 Syndicate - CA 63992-AU18-ARPU BC H 2 10:59:54.40 9.616 00:01:18 Yes
54 Jerry Gatto - CA 0502-AU18-HANG BB H 1 10:59:54.90 9.615 00:01:18 Yes
55 Joe Neves - CA 3586-AU18-FORT BB H 1 10:59:56.00 9.612 00:01:19 Yes
56 Jactions Loft - CA 0801-AU18-AA BB H 2 10:59:56.50 9.610 00:01:20 Yes
57 Skylinerpl.Com - UT 11426-AU18-JEDD "Butterfinger" BC H 3 10:59:57.20 9.608 00:01:21 Yes
58 B S Lofts - CA 0812-AU18-BSL ® 237 & 5552 BB H 1 10:59:59.50 9.601 00:01:23 Yes
59 Jamie Bertero - CA 0613-AU18-ML BC H 1 11:00:00.70 9.598 00:01:24 Yes
59 O'brien & Ellis - CA 8402-AU18-SWI BB H 2 11:00:00.80 9.598 00:01:24 Yes
59 Bieu Tran - CA 0004-AU18-TRAN BBSP H 1 11:00:00.80 9.598 00:01:24 Yes
62 Genesis Syndicate Loft - AZ 0368-AU18-GEN DC H 2 11:00:01.40 9.596 00:01:25 Yes
63 Triangle F Loft - UT 0256-AU18-UVI 594 X 700 BBWF H 4 11:00:01.70 9.595 00:01:25 Yes
63 Jim Lauritzen - CA 0954-AU18-EAV BC H 1 11:00:01.70 9.595 00:01:25 Yes
65 H & H Flying Circus - CA 0801-AU18-ML BC H 3 11:00:03.20 9.591 00:01:27 Yes
65 Nanez Family Lofts - WI 8269-AU18-NANE BB H 1 11:00:03.20 9.591 00:01:27 Yes
67 Nanez Family Lofts - WI 8222-AU18-NANE BC H 2 11:00:03.70 9.589 00:01:27 Yes
68 Jack's Loft - CA 11838-AU18-FOYS Nesler's Fingerprint BC H 1 11:00:04.60 9.587 00:01:28 Yes
69 Perfection 2 - KS 4517-AU18-AA BB H 2 11:00:05.40 9.584 00:01:29 Yes
69 Gomez Loft - CA 0170-AU18-CHP BB H 1 11:00:05.40 9.584 00:01:29 Yes
71 Flying W - CA 0617-AU18-AUB BB H 1 11:00:06.20 9.582 00:01:30 Yes
71 Bieche-Stevenson - CA 8302-AU18-BIE BC H 1 11:00:06.20 9.582 00:01:30 Yes
73 Loizzi - Sikora - CA 2516-AU18-FVC BB H 1 11:00:06.50 9.581 00:01:30 Yes
74 G & J Lofts - CA 3007-AU18-AA Lady Gray BB H 2 11:00:07.00 9.580 00:01:30 Yes
75 De La O-Siino - CA 8112-AU18-COOK BB H 2 11:00:07.80 9.577 00:01:31 Yes
76 Chala Loft - WA 18565-AU18-EVE BC H 1 11:00:08.40 9.576 00:01:32 Yes
76 Al Shulman - CA 2758-AU18-WSJ BB H 2 11:00:08.40 9.576 00:01:32 Yes
78 H & H Flying Circus - CA 0804-AU18-ML BC H 4 11:00:08.80 9.574 00:01:32 Yes
78 Villarama Family - CA 60988-AU18-ARPU J/M 2 BB H 1 11:00:08.80 9.574 00:01:32 Yes
80 M V - CA 8668-AU18-JEDD PIED H 1 11:00:09.20 9.573 00:01:33 Yes
81 Cloux Loft - CO 8304-AU18-FH BB H 2 11:00:09.80 9.572 00:01:33 Yes
82 Dan And Greg Coury - AZ 0824-AU18-PEGA 24495x 1 BB H 3 11:00:11.60 9.566 00:01:35 Yes
83 Apr Loft - CA 2084-AU18-SFR Miss Letlet BB H 1 11:00:12.20 9.565 00:01:36 Yes
84 Bieche-Stevenson - CA 8297-AU18-BIE BC H 2 11:00:13.40 9.561 00:01:37 Yes
85 Nanez Family Lofts - WI 8257-AU18-NANE BC H 3 11:00:17.00 9.551 00:01:40 Yes
86 Bieu Tran - CA 0007-AU18-TRAN BCWF H 2 11:00:19.50 9.544 00:01:43 Yes
87 California Breeders Syndicate - CA 0115-AU18-HANG D/CH H 2 11:00:21.60 9.538 00:01:45 Yes
88 Perfection 2 - KS 0171-AU18-SEBR BBSP H 3 11:00:22.40 9.535 00:01:46 Yes
89 Amir's Folsom Loft - CA 10162-IF18-FOYS BCSP H 1 11:00:25.00 9.528 00:01:48 Lost
90 Jactions Loft - CA 0809-AU18-AA BB H 3 11:00:26.60 9.523 00:01:50 Yes
91 Refrieddreamsrpl - AZ 1229-AU18-ARZ GRIZ H 1 11:00:27.80 9.520 00:01:51 Yes
92 Alpha & Omega Lofts - NV 18992-AU18-RENO SMOK H 1 11:00:30.30 9.513 00:01:54 Yes
93 Perfection 2 - KS 4501-AU18-AA BB H 4 11:00:36.30 9.496 00:02:00 Yes
94 Racing Pigeon Mall - WA 0800-AU18-RPM BB H 2 11:00:37.50 9.492 00:02:01 Lost
95 Scrub Family Loft - MN 0098-AU18-UNIT Xue' s Pick BB H 2 11:00:40.90 9.482 00:02:04 Yes
96 Genesis Syndicate Loft - AZ 0269-AU18-GEN BC H 3 11:00:45.90 9.468 00:02:09 Yes
97 Jactions Loft - CA 0803-AU18-AA BB H 4 11:00:48.40 9.461 00:02:12 Yes
98 Skychargers - CA 0195-AU18-CORO BBSP H 1 11:00:48.90 9.460 00:02:12 Yes
99 Bieche-Stevenson - CA 8258-AU18-BIE BB H 3 11:00:50.20 9.456 00:02:14 Yes
100 Ken Chin - CA 0476-AU18-HAY BB H 1 11:00:51.20 9.453 00:02:15 Yes

There are 222 bird records

Note: These Race Results are unofficial and subject to change until verified by the Race Committee and declared final.